Location: Newark
(43.0000°N, 1.6781°W)
Time: 10:10:17
(UTC+00:00)

A-11 Canister half - Visible Passes

Search period start: 27 September 2022 00:00
Search period end: 07 October 2022 00:00
Orbit: 1524 x 1684 km, 47.3° (Epoch: 26 September)

Date Brightness Start Highest point End Pass type
(mag) Time Alt. Az. Time Alt. Az. Time Alt. Az.
27 Sep 11.0 00:03:42 10° WNW 00:04:24 12° WNW 00:04:24 12° WNW visible
27 Sep 9.2 19:31:13 10° W 19:40:38 69° N 19:47:05 24° ENE visible
27 Sep 9.0 21:36:40 10° WNW 21:45:21 76° WNW 21:45:21 76° WNW visible
27 Sep 10.8 23:41:59 10° WNW 23:43:37 16° WNW 23:43:37 16° WNW visible
28 Sep 9.2 19:09:30 10° W 19:18:54 69° N 19:26:19 19° ENE visible
28 Sep 8.9 21:14:59 10° WNW 21:24:35 86° NNE 21:24:35 86° NNE visible
28 Sep 10.6 23:20:15 10° WNW 23:22:51 20° WNW 23:22:51 20° WNW visible
29 Sep 9.2 18:47:48 10° W 18:57:10 69° N 19:05:34 15° ENE visible
29 Sep 8.8 20:53:18 10° WNW 21:02:53 85° NNE 21:03:51 75° E visible
29 Sep 10.4 22:58:32 10° WNW 23:02:07 25° W 23:02:07 25° W visible
30 Sep 9.2 18:26:05 10° W 18:35:26 69° N 18:44:51 11° ENE visible
30 Sep 8.9 20:31:36 10° WNW 20:41:09 83° NNE 20:43:07 63° E visible
30 Sep 10.2 22:36:49 10° WNW 22:41:24 30° W 22:41:24 30° W visible
01 Oct 9.2 18:04:22 10° W 18:13:43 70° N 18:23:20 10° ENE visible
01 Oct 8.9 20:09:56 10° WNW 20:19:27 81° NNE 20:22:25 51° E visible
01 Oct 10.0 22:15:07 10° WNW 22:20:42 36° W 22:20:42 36° W visible
02 Oct 9.0 19:48:14 10° WNW 19:57:44 80° NNE 20:01:46 41° E visible
02 Oct 9.7 21:53:25 10° WNW 22:00:02 43° W 22:00:02 43° W visible
03 Oct 9.0 19:26:32 10° WNW 19:36:01 78° NNE 19:41:08 33° E visible
03 Oct 9.4 21:31:42 10° WNW 21:39:24 51° WSW 21:39:24 51° WSW visible
04 Oct 9.0 19:04:51 10° WNW 19:14:17 77° NNE 19:20:31 26° E visible
04 Oct 9.2 21:10:01 10° WNW 21:18:49 56° SW 21:18:49 56° SW visible
05 Oct 9.1 18:43:09 10° WNW 18:52:34 76° NNE 18:59:59 20° E visible
05 Oct 9.1 20:48:19 10° WNW 20:57:34 59° SW 20:58:16 58° SSW visible
05 Oct 11.0 22:55:10 10° W 22:56:34 13° W 22:56:34 13° W visible
06 Oct 9.1 18:21:27 10° WNW 18:30:51 75° NNE 18:39:28 14° E visible
06 Oct 9.1 20:26:37 10° WNW 20:35:53 61° SW 20:37:46 53° S visible
06 Oct 10.8 22:33:15 10° W 22:36:04 16° W 22:36:04 16° W visible
